Time,TemperatureF,DewpointF,PressureIn,WindDirection,WindDirectionDegrees,WindSpeedMPH,WindSpeedGustMPH,Humidity,HourlyPrecipIn,Conditions,Clouds,dailyrainin,SoftwareType,DateUTC
2013-03-30 00:02:00,36.0,26.0,-100.00,SE,145,1.0,3.0,67,0.00,,,-99.99,,2013-03-30 04:02:00,
2013-03-30 00:13:00,36.0,26.0,-100.00,SE,145,1.0,3.0,67,0.00,,,-99.99,,2013-03-30 04:13:00,
2013-03-30 00:23:00,35.0,26.0,-100.00,SE,145,1.0,4.0,69,0.00,,,-99.99,,2013-03-30 04:23:00,
2013-03-30 00:33:00,35.0,25.0,-100.00,SSE,150,0.0,2.0,68,0.00,,,-99.99,,2013-03-30 04:33:00,
2013-03-30 00:43:00,35.0,25.0,-100.00,SE,145,0.0,2.0,67,0.00,,,-99.99,,2013-03-30 04:43:00,
2013-03-30 00:52:00,35.0,26.0,-100.00,SE,125,0.0,2.0,70,0.00,,,-99.99,,2013-03-30 04:52:00,
2013-03-30 01:02:00,35.0,25.0,-100.00,East,90,0.0,0.0,68,0.00,,,-99.99,,2013-03-30 05:02:00,
2013-03-30 01:12:00,34.0,25.0,-100.00,SE,125,0.0,1.0,70,0.00,,,-99.99,,2013-03-30 05:12:00,
2013-03-30 01:22:00,34.0,25.0,-100.00,NE,55,0.0,0.0,69,0.00,,,-99.99,,2013-03-30 05:22:00,
2013-03-30 01:32:00,34.0,25.0,-100.00,East,90,0.0,0.0,68,0.00,,,-99.99,,2013-03-30 05:32:00,
2013-03-30 01:42:00,34.0,25.0,-100.00,ENE,70,0.0,2.0,70,0.00,,,-99.99,,2013-03-30 05:42:00,
2013-03-30 01:52:00,33.0,26.0,-100.00,ENE,75,0.0,0.0,73,0.00,,,-99.99,,2013-03-30 05:52:00,
2013-03-30 02:02:00,33.0,25.0,-100.00,East,90,0.0,0.0,74,0.00,,,-99.99,,2013-03-30 06:02:00,
2013-03-30 02:12:00,33.0,26.0,-100.00,ESE,115,0.0,1.0,75,0.00,,,-99.99,,2013-03-30 06:12:00,
2013-03-30 02:23:00,33.0,26.0,-100.00,SE,140,0.0,3.0,74,0.00,,,-99.99,,2013-03-30 06:23:00,
2013-03-30 02:32:00,33.0,25.0,-100.00,SSE,150,0.0,1.0,72,0.00,,,-99.99,,2013-03-30 06:32:00,
2013-03-30 02:42:00,33.0,26.0,-100.00,SE,140,0.0,1.0,77,0.00,,,-99.99,,2013-03-30 06:42:00,
2013-03-30 02:52:00,32.0,26.0,-100.00,SSE,150,0.0,1.0,75,0.00,,,-99.99,,2013-03-30 06:52:00,
2013-03-30 03:02:00,33.0,26.0,-100.00,SSE,150,0.0,1.0,75,0.00,,,-99.99,,2013-03-30 07:02:00,
2013-03-30 03:12:00,32.0,25.0,-100.00,SSE,150,0.0,1.0,76,0.00,,,-99.99,,2013-03-30 07:12:00,
2013-03-30 03:22:00,32.0,24.0,-100.00,SSE,160,0.0,1.0,74,0.00,,,-99.99,,2013-03-30 07:22:00,
2013-03-30 03:32:00,32.0,24.0,-100.00,ESE,115,0.0,1.0,71,0.00,,,-99.99,,2013-03-30 07:32:00,
2013-03-30 03:42:00,32.0,24.0,-100.00,SE,130,0.0,1.0,74,0.00,,,-99.99,,2013-03-30 07:42:00,
2013-03-30 04:02:00,32.0,24.0,-100.00,SSE,155,0.0,2.0,71,0.00,,,-99.99,,2013-03-30 08:02:00,
2013-03-30 04:12:00,33.0,24.0,-100.00,South,170,1.0,2.0,70,0.00,,,-99.99,,2013-03-30 08:12:00,
2013-03-30 04:22:00,33.0,24.0,-100.00,South,180,1.0,4.0,69,0.00,,,-99.99,,2013-03-30 08:22:00,
2013-03-30 04:32:00,33.0,23.0,-100.00,South,190,1.0,3.0,66,0.00,,,-99.99,,2013-03-30 08:32:00,
2013-03-30 04:42:00,33.0,23.0,-100.00,South,190,1.0,3.0,67,0.00,,,-99.99,,2013-03-30 08:42:00,
2013-03-30 04:52:00,33.0,23.0,-100.00,South,170,1.0,3.0,67,0.00,,,-99.99,,2013-03-30 08:52:00,
2013-03-30 05:02:00,33.0,23.0,-100.00,South,185,1.0,3.0,66,0.00,,,-99.99,,2013-03-30 09:02:00,
2013-03-30 05:12:00,33.0,23.0,-100.00,South,170,1.0,2.0,66,0.00,,,-99.99,,2013-03-30 09:12:00,
2013-03-30 05:22:00,32.0,23.0,-100.00,South,175,1.0,2.0,67,0.00,,,-99.99,,2013-03-30 09:22:00,
2013-03-30 05:33:00,32.0,22.0,-100.00,South,185,1.0,3.0,66,0.00,,,-99.99,,2013-03-30 09:33:00,
2013-03-30 05:43:00,32.0,22.0,-100.00,SE,135,1.0,2.0,67,0.00,,,-99.99,,2013-03-30 09:43:00,
2013-03-30 05:53:00,32.0,22.0,-100.00,South,175,0.0,2.0,67,0.00,,,-99.99,,2013-03-30 09:53:00,
2013-03-30 06:03:00,31.0,22.0,-100.00,South,175,0.0,2.0,67,0.00,,,-99.99,,2013-03-30 10:03:00,
2013-03-30 06:13:00,31.0,22.0,-100.00,South,175,0.0,2.0,67,0.00,,,-99.99,,2013-03-30 10:13:00,
2013-03-30 06:23:00,31.0,22.0,-100.00,South,180,0.0,1.0,69,0.00,,,-99.99,,2013-03-30 10:23:00,
2013-03-30 06:33:00,31.0,22.0,-100.00,ENE,60,0.0,1.0,70,0.00,,,-99.99,,2013-03-30 10:33:00,
2013-03-30 06:42:00,30.0,22.0,-100.00,ESE,110,0.0,0.0,71,0.00,,,-99.99,,2013-03-30 10:42:00,
2013-03-30 06:52:00,30.0,22.0,-100.00,East,85,0.0,0.0,71,0.00,,,-99.99,,2013-03-30 10:52:00,
2013-03-30 07:03:00,30.0,22.0,-100.00,NNE,20,0.0,1.0,71,0.00,,,-99.99,,2013-03-30 11:03:00,
2013-03-30 07:12:00,30.0,23.0,-100.00,SSE,155,0.0,0.0,74,0.00,,,-99.99,,2013-03-30 11:12:00,
2013-03-30 07:22:00,30.0,22.0,-100.00,SE,130,0.0,1.0,72,0.00,,,-99.99,,2013-03-30 11:22:00,
2013-03-30 07:33:00,30.0,23.0,-100.00,ENE,75,0.0,1.0,72,0.00,,,-99.99,,2013-03-30 11:33:00,
2013-03-30 07:42:00,30.0,23.0,-100.00,SE,130,0.0,2.0,73,0.00,,,-99.99,,2013-03-30 11:42:00,
2013-03-30 07:52:00,30.0,23.0,-100.00,East,80,0.0,0.0,76,0.00,,,-99.99,,2013-03-30 11:52:00,
2013-03-30 08:02:00,30.0,23.0,-100.00,SSE,155,0.0,2.0,73,0.00,,,-99.99,,2013-03-30 12:02:00,
2013-03-30 08:13:00,31.0,23.0,-100.00,ESE,115,1.0,2.0,71,0.00,,,-99.99,,2013-03-30 12:13:00,
2013-03-30 08:22:00,32.0,23.0,-100.00,SE,125,1.0,2.0,70,0.00,,,-99.99,,2013-03-30 12:22:00,
2013-03-30 08:33:00,33.0,24.0,-100.00,SE,130,1.0,3.0,70,0.00,,,-99.99,,2013-03-30 12:33:00,
2013-03-30 08:42:00,34.0,24.0,-100.00,SE,135,0.0,2.0,64,0.00,,,-99.99,,2013-03-30 12:42:00,
2013-03-30 08:52:00,35.0,24.0,-100.00,SE,135,1.0,2.0,62,0.00,,,-99.99,,2013-03-30 12:52:00,
2013-03-30 09:02:00,37.0,24.0,-100.00,SE,125,0.0,2.0,59,0.00,,,-99.99,,2013-03-30 13:02:00,
2013-03-30 09:12:00,37.0,25.0,-100.00,SE,140,1.0,2.0,61,0.00,,,-99.99,,2013-03-30 13:12:00,
2013-03-30 09:22:00,38.0,25.0,-100.00,ESE,115,0.0,2.0,58,0.00,,,-99.99,,2013-03-30 13:22:00,
2013-03-30 09:32:00,40.0,24.0,-100.00,SE,135,0.0,1.0,51,0.00,,,-99.99,,2013-03-30 13:32:00,
2013-03-30 09:43:00,41.0,24.0,-100.00,ESE,115,0.0,2.0,50,0.00,,,-99.99,,2013-03-30 13:43:00,
2013-03-30 09:52:00,42.0,24.0,-100.00,ENE,75,0.0,1.0,48,0.00,,,-99.99,,2013-03-30 13:52:00,
2013-03-30 10:03:00,43.0,24.0,-100.00,East,80,0.0,3.0,47,0.00,,,-99.99,,2013-03-30 14:03:00,
2013-03-30 10:12:00,43.0,24.0,-100.00,ENE,65,0.0,3.0,45,0.00,,,-99.99,,2013-03-30 14:12:00,
2013-03-30 10:23:00,45.0,26.0,-100.00,East,90,0.0,3.0,47,0.00,,,-99.99,,2013-03-30 14:23:00,
2013-03-30 10:32:00,45.0,26.0,-100.00,NNE,30,1.0,3.0,47,0.00,,,-99.99,,2013-03-30 14:32:00,
2013-03-30 10:42:00,46.0,25.0,-100.00,NNE,25,0.0,3.0,43,0.00,,,-99.99,,2013-03-30 14:42:00,
2013-03-30 10:52:00,46.0,21.0,-100.00,SE,140,2.0,4.0,37,0.00,,,-99.99,,2013-03-30 14:52:00,
2013-03-30 11:03:00,46.0,21.0,-100.00,SE,140,2.0,4.0,37,0.00,,,-99.99,,2013-03-30 15:03:00,
2013-03-30 11:12:00,49.0,26.0,-100.00,South,180,1.0,4.0,40,0.00,,,-99.99,,2013-03-30 15:12:00,
2013-03-30 11:22:00,48.0,24.0,-100.00,SE,135,3.0,6.0,38,0.00,,,-99.99,,2013-03-30 15:22:00,
2013-03-30 11:34:00,49.0,23.0,-100.00,SSE,150,3.0,8.0,36,0.00,,,-99.99,,2013-03-30 15:34:00,
2013-03-30 11:43:00,49.0,23.0,-100.00,SE,130,4.0,7.0,35,0.00,,,-99.99,,2013-03-30 15:43:00,
2013-03-30 11:52:00,50.0,22.0,-100.00,SE,140,4.0,7.0,33,0.00,,,-99.99,,2013-03-30 15:52:00,
2013-03-30 12:03:00,51.0,23.0,-100.00,SSE,165,2.0,9.0,33,0.00,,,-99.99,,2013-03-30 16:03:00,
2013-03-30 12:13:00,51.0,26.0,-100.00,SE,140,5.0,9.0,37,0.00,,,-99.99,,2013-03-30 16:13:00,
2013-03-30 12:23:00,52.0,23.0,-100.00,SSE,150,4.0,7.0,32,0.00,,,-99.99,,2013-03-30 16:23:00,
2013-03-30 12:33:00,52.0,25.0,-100.00,SE,140,6.0,9.0,34,0.00,,,-99.99,,2013-03-30 16:33:00,
2013-03-30 12:43:00,53.0,26.0,-100.00,SSE,150,2.0,9.0,34,0.00,,,-99.99,,2013-03-30 16:43:00,
2013-03-30 12:52:00,52.0,25.0,-100.00,SSE,155,4.0,11.0,34,0.00,,,-99.99,,2013-03-30 16:52:00,
2013-03-30 13:02:00,52.0,24.0,-100.00,SE,130,5.0,9.0,32,0.00,,,-99.99,,2013-03-30 17:02:00,
2013-03-30 13:13:00,53.0,26.0,-100.00,SE,140,6.0,12.0,34,0.00,,,-99.99,,2013-03-30 17:13:00,
2013-03-30 13:23:00,53.0,24.0,-100.00,SE,145,4.0,9.0,32,0.00,,,-99.99,,2013-03-30 17:23:00,
2013-03-30 13:32:00,53.0,24.0,-100.00,ESE,110,6.0,12.0,31,0.00,,,-99.99,,2013-03-30 17:32:00,
2013-03-30 13:42:00,53.0,24.0,-100.00,SE,125,7.0,12.0,31,0.00,,,-99.99,,2013-03-30 17:42:00,
2013-03-30 13:52:00,53.0,24.0,-100.00,SSE,155,4.0,10.0,31,0.00,,,-99.99,,2013-03-30 17:52:00,
2013-03-30 14:03:00,54.0,26.0,-100.00,SSE,150,6.0,12.0,33,0.00,,,-99.99,,2013-03-30 18:03:00,
2013-03-30 14:13:00,55.0,26.0,-100.00,SSE,150,3.0,11.0,31,0.00,,,-99.99,,2013-03-30 18:13:00,
2013-03-30 14:22:00,54.0,26.0,-100.00,SE,145,6.0,11.0,32,0.00,,,-99.99,,2013-03-30 18:22:00,
2013-03-30 14:33:00,55.0,25.0,-100.00,SE,125,5.0,9.0,30,0.00,,,-99.99,,2013-03-30 18:33:00,
2013-03-30 14:42:00,55.0,24.0,-100.00,SE,140,4.0,9.0,30,0.00,,,-99.99,,2013-03-30 18:42:00,
2013-03-30 14:53:00,55.0,24.0,-100.00,SSE,165,4.0,9.0,29,0.00,,,-99.99,,2013-03-30 18:53:00,
2013-03-30 15:03:00,55.0,23.0,-100.00,South,180,5.0,11.0,29,0.00,,,-99.99,,2013-03-30 19:03:00,
2013-03-30 15:13:00,55.0,23.0,-100.00,South,180,5.0,11.0,29,0.00,,,-99.99,,2013-03-30 19:13:00,
2013-03-30 15:22:00,56.0,28.0,-100.00,SE,130,4.0,8.0,33,0.00,,,-99.99,,2013-03-30 19:22:00,
2013-03-30 15:32:00,56.0,25.0,-100.00,SSE,155,6.0,9.0,29,0.00,,,-99.99,,2013-03-30 19:32:00,
2013-03-30 15:42:00,56.0,27.0,-100.00,SSE,160,6.0,10.0,32,0.00,,,-99.99,,2013-03-30 19:42:00,
2013-03-30 15:52:00,56.0,27.0,-100.00,SSE,150,4.0,12.0,31,0.00,,,-99.99,,2013-03-30 19:52:00,
2013-03-30 16:02:00,56.0,26.0,-100.00,SSE,165,6.0,9.0,31,0.00,,,-99.99,,2013-03-30 20:02:00,
2013-03-30 16:12:00,56.0,28.0,-100.00,ESE,110,7.0,11.0,33,0.00,,,-99.99,,2013-03-30 20:12:00,
2013-03-30 16:22:00,56.0,27.0,-100.00,SE,135,6.0,12.0,32,0.00,,,-99.99,,2013-03-30 20:22:00,
2013-03-30 16:33:00,56.0,28.0,-100.00,SSE,150,4.0,11.0,33,0.00,,,-99.99,,2013-03-30 20:33:00,
2013-03-30 16:42:00,55.0,27.0,-100.00,SE,145,4.0,9.0,33,0.00,,,-99.99,,2013-03-30 20:42:00,
2013-03-30 16:52:00,55.0,28.0,-100.00,ESE,110,4.0,8.0,34,0.00,,,-99.99,,2013-03-30 20:52:00,
2013-03-30 17:03:00,55.0,26.0,-100.00,SE,130,4.0,11.0,32,0.00,,,-99.99,,2013-03-30 21:03:00,
2013-03-30 17:13:00,55.0,26.0,-100.00,SE,135,4.0,9.0,33,0.00,,,-99.99,,2013-03-30 21:13:00,
2013-03-30 17:22:00,55.0,27.0,-100.00,SE,145,4.0,9.0,33,0.00,,,-99.99,,2013-03-30 21:22:00,
2013-03-30 17:34:00,55.0,28.0,-100.00,SE,130,4.0,7.0,35,0.00,,,-99.99,,2013-03-30 21:34:00,
2013-03-30 17:43:00,55.0,27.0,-100.00,SE,140,4.0,10.0,34,0.00,,,-99.99,,2013-03-30 21:43:00,
2013-03-30 17:52:00,55.0,27.0,-100.00,SE,140,2.0,7.0,34,0.00,,,-99.99,,2013-03-30 21:52:00,
2013-03-30 18:03:00,54.0,27.0,-100.00,SE,125,5.0,7.0,35,0.00,,,-99.99,,2013-03-30 22:03:00,
2013-03-30 18:13:00,54.0,28.0,-100.00,SE,125,4.0,7.0,35,0.00,,,-99.99,,2013-03-30 22:13:00,
2013-03-30 18:23:00,54.0,27.0,-100.00,SE,125,3.0,9.0,34,0.00,,,-99.99,,2013-03-30 22:23:00,
2013-03-30 18:33:00,54.0,27.0,-100.00,ESE,105,4.0,9.0,34,0.00,,,-99.99,,2013-03-30 22:33:00,
2013-03-30 18:43:00,54.0,27.0,-100.00,ESE,110,4.0,9.0,35,0.00,,,-99.99,,2013-03-30 22:43:00,
2013-03-30 18:53:00,54.0,28.0,-100.00,SE,125,3.0,6.0,36,0.00,,,-99.99,,2013-03-30 22:53:00,
2013-03-30 19:02:00,54.0,28.0,-100.00,SE,125,3.0,7.0,36,0.00,,,-99.99,,2013-03-30 23:02:00,
2013-03-30 19:13:00,53.0,29.0,-100.00,SE,130,2.0,6.0,39,0.00,,,-99.99,,2013-03-30 23:13:00,
2013-03-30 19:22:00,53.0,29.0,-100.00,SE,135,2.0,4.0,39,0.00,,,-99.99,,2013-03-30 23:22:00,
2013-03-30 19:33:00,53.0,30.0,-100.00,SE,130,1.0,3.0,41,0.00,,,-99.99,,2013-03-30 23:33:00,
2013-03-30 19:42:00,53.0,30.0,-100.00,ESE,120,0.0,2.0,41,0.00,,,-99.99,,2013-03-30 23:42:00,
2013-03-30 19:52:00,53.0,30.0,-100.00,SE,135,0.0,2.0,41,0.00,,,-99.99,,2013-03-30 23:52:00,
2013-03-30 20:03:00,52.0,29.0,-100.00,SE,135,1.0,1.0,40,0.00,,,-99.99,,2013-03-31 00:03:00,
2013-03-30 20:12:00,52.0,29.0,-100.00,ESE,105,0.0,2.0,41,0.00,,,-99.99,,2013-03-31 00:12:00,
2013-03-30 20:22:00,51.0,31.0,-100.00,East,80,0.0,1.0,46,0.00,,,-99.99,,2013-03-31 00:22:00,
2013-03-30 20:32:00,51.0,31.0,-100.00,East,80,1.0,2.0,47,0.00,,,-99.99,,2013-03-31 00:32:00,
2013-03-30 20:43:00,50.0,31.0,-100.00,East,80,0.0,2.0,48,0.00,,,-99.99,,2013-03-31 00:43:00,
2013-03-30 20:52:00,49.0,33.0,-100.00,ENE,60,1.0,2.0,54,0.00,,,-99.99,,2013-03-31 00:52:00,
2013-03-30 21:02:00,49.0,32.0,-100.00,East,80,1.0,3.0,50,0.00,,,-99.99,,2013-03-31 01:02:00,
2013-03-30 21:12:00,49.0,31.0,-100.00,East,80,1.0,2.0,49,0.00,,,-99.99,,2013-03-31 01:12:00,
2013-03-30 21:22:00,49.0,31.0,-100.00,ENE,75,1.0,3.0,49,0.00,,,-99.99,,2013-03-31 01:22:00,
2013-03-30 21:32:00,48.0,31.0,-100.00,NE,45,1.0,2.0,51,0.00,,,-99.99,,2013-03-31 01:32:00,
2013-03-30 21:42:00,48.0,31.0,-100.00,ENE,60,1.0,2.0,50,0.00,,,-99.99,,2013-03-31 01:42:00,
2013-03-30 21:52:00,48.0,31.0,-100.00,NE,40,1.0,3.0,50,0.00,,,-99.99,,2013-03-31 01:52:00,
2013-03-30 22:02:00,48.0,31.0,-100.00,NE,55,1.0,2.0,51,0.00,,,-99.99,,2013-03-31 02:02:00,
2013-03-30 22:13:00,47.0,33.0,-100.00,East,80,1.0,3.0,58,0.00,,,-99.99,,2013-03-31 02:13:00,
2013-03-30 22:22:00,47.0,33.0,-100.00,ENE,65,1.0,2.0,58,0.00,,,-99.99,,2013-03-31 02:22:00,
2013-03-30 22:32:00,47.0,33.0,-100.00,East,85,1.0,3.0,56,0.00,,,-99.99,,2013-03-31 02:32:00,
2013-03-30 22:43:00,47.0,31.0,-100.00,East,80,2.0,4.0,54,0.00,,,-99.99,,2013-03-31 02:43:00,
2013-03-30 22:52:00,47.0,31.0,-100.00,East,80,2.0,4.0,54,0.00,,,-99.99,,2013-03-31 02:52:00,
2013-03-30 23:02:00,47.0,32.0,-100.00,East,85,4.0,5.0,54,0.00,,,-99.99,,2013-03-31 03:02:00,
2013-03-30 23:13:00,47.0,31.0,-100.00,East,90,3.0,6.0,54,0.00,,,-99.99,,2013-03-31 03:13:00,
2013-03-30 23:22:00,47.0,32.0,-100.00,East,85,2.0,4.0,55,0.00,,,-99.99,,2013-03-31 03:22:00,
2013-03-30 23:33:00,47.0,31.0,-100.00,East,80,2.0,4.0,53,0.00,,,-99.99,,2013-03-31 03:33:00,
2013-03-30 23:43:00,47.0,31.0,-100.00,East,85,2.0,3.0,54,0.00,,,-99.99,,2013-03-31 03:43:00,
2013-03-30 23:53:00,47.0,31.0,-100.00,East,90,1.0,2.0,52,0.00,,,-99.99,,2013-03-31 03:53:00,